Regional Weather Roundup
Issued by NWS

Home | Current Version | Previous Version | Text Only | Print | Product List | Glossary Off
Versions: 1 2 3 4 5 6 7 8 9 10 11 12 13 14 15 16 17 18 19 20 21 22 23 24 25 26 27 28 29 30 31 32 33 34 35 36 37 38 39 40 41 42 43 44 45 46 47 48 49 50

224
ASUS44 KLIX 211901
RWRLA
LOUISIANA WEATHER ROUNDUP
NATIONAL WEATHER SERVICE NEW ORLEANS LA
100 PM CST SUN DEC 21 2014

NOTE: "FAIR" INDICATES FEW OR NO CLOUDS BELOW 12,000 FEET WITH NO
      SIGNIFICANT WEATHER AND/OR OBSTRUCTIONS TO VISIBILITY.
      SKY/WX - SKY CONDITION AND SIGNIFICANT WEATHER.
      TMP - AIR TEMPERATURE.    DP   - DEWPOINT TEMPERATURE.
      RH  - RELATIVE HUMIDITY.  PRES - PRESSURE.
      HX  - HEAT INDEX.         WCI  - WIND CHILL INDEX.

*  THESE STATIONS ARE NOT NWS OR FAA STATIONS AND ARE NOT UNDER
   NWS QUALITY CONTROL.

LAZ040-048-061>063-065-066-069-212000-
SOUTHEAST LOUISIANA

CITY           SKY/WX    TMP DP  RH WIND       PRES   REMARKS
N.O. AUDUBON     N/A     58  53  81 MISG        N/A
N.O. INTL ARPT CLOUDY    58  50  75 N10       30.04F
N.O. LAKEFRONT CLOUDY    57  50  77 NE3       30.06F
N.O. DOWNTOWN* CLOUDY    57  48  72 CALM      30.05F
SLIDELL        CLOUDY    60  50  69 SE5       30.04F
BATON ROUGE    CLOUDY    57  47  69 CALM      30.04F
BOOTHVILLE     CLOUDY    59  55  87 N7        30.05F
BELLE CHASSE   CLOUDY    59  52  77 E8        30.04F
BOGALUSA*        N/A     60  49  66 CALM      30.08F
GALLIANO*      NOT AVBL
NEW ROADS*     NOT AVBL
GONZALES*      NOT AVBL
HAMMOND*       NOT AVBL
HOUMA*         CLOUDY    57  52  82 NE7       30.04F
PORT FOURCHON* CLOUDY    57  54  88 NE9       30.06F

$$

LAZ041-044-053-054-212000-
SOUTHWEST LOUISIANA

CITY           SKY/WX    TMP DP  RH WIND       PRES   REMARKS
LAKE CHARLES   CLOUDY    48  47  96 CALM      30.06F
LAFAYETTE      CLOUDY    51  49  92 CALM      30.06F
PATTERSON      CLOUDY    55  50  82 N3        30.05F
SALT POINT       N/A     60  52  74 SE5       30.03F
NEW IBERIA     CLOUDY    53  49  86 NE3       30.06F FOG
CHENAULT AIRPK CLOUDY    48  48 100 CALM      30.07F FOG

$$

LAZ027-028-212000-
CENTRAL LOUISIANA

CITY           SKY/WX    TMP DP  RH WIND       PRES   REMARKS
FORT POLK      SUNNY     60  48  65 SW3       30.02F
ALEXANDRIA INT SUNNY     54  47  77 SE6       30.04F
ALEXANDRIA     MOSUNNY   55  47  74 SE5       30.04F

$$

LAZ001-002-212000-
NORTHWEST LOUISIANA

CITY           SKY/WX    TMP DP  RH WIND       PRES   REMARKS
SHREVEPORT     PTSUNNY   56  44  64 VRB5      30.03F
BARKSDALE AFB  NOT AVBL
DTN SHREVEPORT MOSUNNY   55  43  63 S6        30.04F

$$

LAZ014-016-212000-
NORTHEAST LOUISIANA

CITY           SKY/WX    TMP DP  RH WIND       PRES   REMARKS
MONROE         SUNNY     58  44  60 E3        30.07F
TALLULAH       SUNNY     58  46  64 CALM      30.07F

$$




USA.gov is the U.S. government's official web portal to all federal, state and local government web resources and services.